Weather History for KBHB - February, 2013

Change the Weather History Date:

Sunday, February 24, 2013

  Actual Average (KBGR) Record (KBGR)
Temperature  
Mean Temperature 30 °F 23 °F  
Max Temperature 33 °F 34 °F 53 °F (1930)
Min Temperature 28 °F 13 °F -26 °F (1929)
Degree Days  
Heating Degree Days 34 42  
Month to date heating degree days 1075  
Since 1 July heating degree days 5482  
Cooling Degree Days 0 0  
Month to date cooling degree days 0  
Year to date cooling degree days 0  
Moisture  
Dew Point 28 °F    
Average Humidity 91    
Maximum Humidity 100    
Minimum Humidity 75    
Precipitation  
Precipitation 0.02 in 0.09 in 0.85 in (1979)
Month to date precipitation 2.13  
Year to date precipitation 5.02  
Snow  
Snow 0.00 in 0.50 in 10.00 in (1962)
Month to date snowfall 12.8  
Since 1 July snowfall 48.8  
Snow Depth -    
Sea Level Pressure  
Sea Level Pressure 29.88 in    
Wind  
Wind Speed 7 mph (NNE)    
Max Wind Speed 13 mph    
Max Gust Speed 20 mph    
Visibility 7 miles    
Events      
T = Trace of Precipitation, MM = Missing Value Source: NWS Daily Summary

Daily Weather History Graph

Daily Weather History Graph

Search for Another Location

Airport or City:

Trip Planner

Search our weather history database for the weather conditions in past years. The results will help you decide how hot, cold, wet, or windy it might be!

Date:

Astronomy

Feb. 24, 2013 Rise Set
Actual Time 6:18 AM EST 5:15 PM EST
Civil Twilight 5:49 AM EST 5:44 PM EST
Nautical Twilight 5:15 AM EST 6:18 PM EST
Astronomical Twilight 4:42 AM EST 6:51 PM EST
Moon 4:22 PM EST (2/24) 5:15 AM EST (2/24)
Length of Visible Light 11h 54m
Length of Day
10h 56m
Waxing Gibbous, 99% of the Moon is Illuminated
Feb 24
Waxing Gibbous
Feb 25
Full
Mar 4
Last Quarter
Mar 11
New
Mar 19
First Quarter

Hourly Weather History & Observations

Time (EST) Temp. Windchill Dew Point Humidity Pressure Visibility Wind Dir Wind Speed Gust Speed Precip Events Conditions
12:15 AM 32.0 °F 27.5 °F 26.6 °F 80% 30.07 in 9.0 mi SE 4.6 mph - N/A   Overcast
12:35 AM 30.2 °F - 26.6 °F 86% 30.07 in 10.0 mi Calm Calm - N/A   Overcast
12:55 AM 30.2 °F 25.4 °F 28.4 °F 93% 30.06 in 3.0 mi North 4.6 mph - N/A   Overcast
1:15 AM 30.2 °F 24.3 °F 28.4 °F 93% 30.05 in 1.2 mi NNE 5.8 mph - N/A   Overcast
1:35 AM 28.4 °F 24.6 °F 28.4 °F 100% 30.05 in 3.0 mi NNE 3.5 mph - N/A   Overcast
1:55 AM 28.4 °F 24.6 °F 26.6 °F 93% 30.04 in 3.0 mi NE 3.5 mph - N/A   Overcast
2:15 AM 28.4 °F 23.3 °F 26.6 °F 93% 30.03 in 3.0 mi NNE 4.6 mph - N/A   Overcast
2:35 AM 28.4 °F 22.2 °F 28.4 °F 100% 30.02 in 6.0 mi NNE 5.8 mph - N/A   Overcast
2:55 AM 28.4 °F 21.2 °F 28.4 °F 100% 30.01 in 5.0 mi NNE 6.9 mph - N/A   Overcast
3:15 AM 28.4 °F 22.2 °F 28.4 °F 100% 30.00 in 6.0 mi North 5.8 mph - N/A   Overcast
3:35 AM 28.4 °F 21.2 °F 28.4 °F 100% 29.98 in 9.0 mi North 6.9 mph - N/A   Overcast
3:55 AM 28.4 °F 24.6 °F 28.4 °F 100% 29.98 in 10.0 mi North 3.5 mph - N/A   Overcast
4:15 AM 28.4 °F 24.6 °F 28.4 °F 100% 29.98 in 10.0 mi NNE 3.5 mph - N/A   Overcast
4:35 AM 28.4 °F 22.2 °F 28.4 °F 100% 29.97 in 10.0 mi NNE 5.8 mph - N/A   Overcast
4:55 AM 28.4 °F 21.2 °F 28.4 °F 100% 29.96 in 10.0 mi NNE 6.9 mph - N/A   Overcast
5:15 AM 28.4 °F 21.2 °F 26.6 °F 93% 29.95 in 10.0 mi NNE 6.9 mph - N/A   Overcast
5:35 AM 30.2 °F 25.4 °F 28.4 °F 93% 29.95 in 10.0 mi North 4.6 mph - N/A   Overcast
5:55 AM 30.2 °F 21.9 °F 28.4 °F 93% 29.94 in 10.0 mi ENE 9.2 mph - N/A   Overcast
6:15 AM 30.2 °F 22.6 °F 28.4 °F 93% 29.94 in 10.0 mi ENE 8.1 mph - N/A   Overcast
6:35 AM 30.2 °F 23.4 °F 28.4 °F 93% 29.94 in 10.0 mi ENE 6.9 mph - N/A   Overcast
6:55 AM 32.0 °F 24.2 °F 28.4 °F 87% 29.93 in 10.0 mi ENE 9.2 mph - N/A   Overcast
7:16 AM 32.0 °F 24.8 °F 28.4 °F 87% 29.93 in 10.0 mi ENE 8.1 mph - N/A   Overcast
7:35 AM 32.0 °F 25.6 °F 28.4 °F 87% 29.92 in 10.0 mi NE 6.9 mph - N/A   Overcast
7:55 AM 32.0 °F 25.6 °F 28.4 °F 87% 29.92 in 10.0 mi ENE 6.9 mph - N/A   Overcast
8:15 AM 32.0 °F 26.4 °F 28.4 °F 87% 29.92 in 10.0 mi ENE 5.8 mph - N/A   Overcast
8:35 AM 32.0 °F 26.4 °F 28.4 °F 87% 29.92 in 10.0 mi East 5.8 mph - N/A   Overcast
8:55 AM 33.8 °F 26.4 °F 28.4 °F 81% 29.91 in 10.0 mi ENE 9.2 mph - N/A   Overcast
9:15 AM 33.8 °F 27.0 °F 28.4 °F 81% 29.90 in 10.0 mi ENE 8.1 mph - N/A   Overcast
9:35 AM 33.8 °F 25.3 °F 28.4 °F 81% 29.89 in 10.0 mi ENE 11.5 mph - N/A   Overcast
9:55 AM 33.8 °F 27.0 °F 28.4 °F 81% 29.88 in 10.0 mi ENE 8.1 mph 17.3 mph N/A   Overcast
10:15 AM 33.8 °F 25.3 °F 26.6 °F 75% 29.88 in 10.0 mi ENE 11.5 mph 16.1 mph N/A   Overcast
10:35 AM 33.8 °F 24.8 °F 26.6 °F 75% 29.87 in 10.0 mi ENE 12.7 mph 19.6 mph N/A   Overcast
10:55 AM 32.0 °F 23.6 °F 26.6 °F 80% 29.87 in 3.0 mi ENE 10.4 mph - N/A   Overcast
11:15 AM 32.0 °F 22.5 °F 28.4 °F 87% 29.86 in 2.5 mi ENE 12.7 mph 18.4 mph N/A   Overcast
11:36 AM 32.0 °F 22.5 °F 28.4 °F 87% 29.85 in 7.0 mi NE 12.7 mph 16.1 mph N/A   Overcast
11:55 AM 32.0 °F 24.2 °F 28.4 °F 87% 29.85 in 6.0 mi NE 9.2 mph - N/A   Overcast
12:15 PM 32.0 °F 23.6 °F 28.4 °F 87% 29.85 in 1.5 mi NNE 10.4 mph - N/A   Overcast
12:35 PM 30.2 °F 21.3 °F 28.4 °F 93% 29.84 in 0.8 mi NNE 10.4 mph - N/A   Overcast
12:55 PM 30.2 °F 20.2 °F 28.4 °F 93% 29.83 in 0.5 mi NNE 12.7 mph - N/A   Overcast
1:15 PM 30.2 °F 21.3 °F 28.4 °F 93% 29.82 in 0.8 mi NNE 10.4 mph - N/A   Overcast
1:35 PM 30.2 °F 21.3 °F 28.4 °F 93% 29.81 in 0.5 mi NNE 10.4 mph - N/A   Overcast
1:55 PM 30.2 °F 21.3 °F 30.2 °F 100% 29.80 in 0.8 mi NNE 10.4 mph - 0.01 in   Overcast
2:15 PM 30.2 °F 20.2 °F 28.4 °F 93% 29.80 in 1.0 mi NNE 12.7 mph 18.4 mph N/A   Overcast
2:35 PM 30.2 °F 21.9 °F 28.4 °F 93% 29.80 in 1.0 mi NNE 9.2 mph - N/A   Overcast
2:55 PM 30.2 °F 21.3 °F 28.4 °F 93% 29.79 in 0.8 mi NNE 10.4 mph - N/A   Overcast
3:15 PM 30.2 °F 20.8 °F 28.4 °F 93% 29.79 in 0.8 mi NNE 11.5 mph - N/A   Overcast
3:35 PM 30.2 °F 21.3 °F 28.4 °F 93% 29.79 in 1.0 mi NNE 10.4 mph - N/A   Overcast
3:55 PM 30.2 °F 21.9 °F 28.4 °F 93% 29.79 in 0.8 mi NNE 9.2 mph - N/A   Overcast
4:15 PM 30.2 °F 20.2 °F 28.4 °F 93% 29.79 in 1.0 mi NE 12.7 mph 17.3 mph N/A   Overcast
4:35 PM 28.4 °F 20.4 °F 28.4 °F 100% 29.80 in 1.0 mi NE 8.1 mph 16.1 mph N/A   Overcast
4:55 PM 28.4 °F 21.2 °F 26.6 °F 93% 29.80 in 0.5 mi NNE 6.9 mph - 0.01 in   Overcast
5:15 PM 28.4 °F 21.2 °F 26.6 °F 93% 29.79 in 2.5 mi NE 6.9 mph - N/A   Overcast
5:35 PM 28.4 °F 23.3 °F 26.6 °F 93% 29.80 in 10.0 mi NNE 4.6 mph - N/A   Overcast
5:55 PM 28.4 °F 22.2 °F 28.4 °F 100% 29.80 in 10.0 mi NNE 5.8 mph - N/A   Overcast
6:15 PM 28.4 °F 22.2 °F 28.4 °F 100% 29.80 in 10.0 mi North 5.8 mph - N/A   Overcast
6:35 PM 28.4 °F 22.2 °F 28.4 °F 100% 29.80 in 10.0 mi North 5.8 mph - N/A   Overcast
6:55 PM 28.4 °F 23.3 °F 28.4 °F 100% 29.81 in 10.0 mi North 4.6 mph - N/A   Overcast
7:15 PM 28.4 °F 24.6 °F 28.4 °F 100% 29.81 in 10.0 mi North 3.5 mph - N/A   Overcast
7:35 PM 28.4 °F 23.3 °F 28.4 °F 100% 29.81 in 10.0 mi North 4.6 mph - N/A   Overcast
7:55 PM 28.4 °F 23.3 °F 26.6 °F 93% 29.81 in 10.0 mi North 4.6 mph - N/A   Mostly Cloudy
8:15 PM 28.4 °F 22.2 °F 26.6 °F 93% 29.81 in 10.0 mi North 5.8 mph - N/A   Partly Cloudy
8:35 PM 28.4 °F 20.4 °F 26.6 °F 93% 29.81 in 10.0 mi North 8.1 mph - N/A   Scattered Clouds
8:55 PM 28.4 °F 20.4 °F 26.6 °F 93% 29.82 in 10.0 mi North 8.1 mph - N/A   Mostly Cloudy
9:15 PM 28.4 °F 21.2 °F 24.8 °F 86% 29.82 in 10.0 mi North 6.9 mph - N/A   Mostly Cloudy
9:35 PM 28.4 °F 21.2 °F 24.8 °F 86% 29.82 in 10.0 mi North 6.9 mph - N/A   Overcast
9:55 PM 28.4 °F 21.2 °F 24.8 °F 86% 29.83 in 10.0 mi North 6.9 mph - N/A   Overcast
10:15 PM 28.4 °F 19.7 °F 24.8 °F 86% 29.83 in 10.0 mi North 9.2 mph - N/A   Overcast
10:35 PM 28.4 °F 22.2 °F 24.8 °F 86% 29.84 in 10.0 mi North 5.8 mph - N/A   Overcast
10:55 PM 28.4 °F 19.7 °F 24.8 °F 86% 29.84 in 10.0 mi NNW 9.2 mph - N/A   Overcast
11:15 PM 28.4 °F 22.2 °F 24.8 °F 86% 29.85 in 10.0 mi North 5.8 mph - N/A   Overcast
11:35 PM 28.4 °F 23.3 °F 24.8 °F 86% 29.86 in 10.0 mi NNW 4.6 mph - N/A   Overcast
11:55 PM 28.4 °F 22.2 °F 24.8 °F 86% 29.86 in 10.0 mi NNW 5.8 mph - N/A   Overcast